Location: Plainartige
(45.6866°N, 1.7993°E)
Time: 13:10:14
(UTC+00:00)

Gurwin Techsat 1B - Pass Details

Date: 04 July 2022
Orbit: 812 x 813 km, 98.8° (Epoch: 13 August)

Event Time Altitude Azimuth Distance (km) Brightness Sun altitude
Rises 02:31:09 0° 14° (NNE) 3,346 13.2 -13.0°
Reaches altitude 10° 02:33:30 10° 16° (NNE) 2,410 12.3 -12.8°
Maximum altitude 02:38:51 83° 105° (ESE) 824 8.7 -12.2°
Enters shadow 02:43:43 13° 193° (SSW) 2,220 10.3 -11.7°
